Contact Us:
Email: info@sawbill.com
Phone: (218)663-7150
Fax: (218)663-7980
Mail: 4620 Sawbill Trail
Box 2129
Tofte, MN 55615


Powered by
Movable Type 3.15
 
Sawbill Weather History
Check out the 7 Day Weather Forecast for the Superior National Forest.
Date High
Temperature
Low
Temperature
Barometric
Pressure
Relative
Humidity 7AM
9 AM
Temperature
Moisture Snow
2/10/16 3 -15 30.16 63% -11 0
2/9/16 4 -15 30.04 63% -15 0
2/8/16 9 -2 30.02 63% -2 .13" 1.5"
2/7/16 33 6 29.84 63% 6 .16" 1.5"
2/6/16 30 21 29.74 98% 30 .41" 4"
2/5/16 21 -1 30.04 74% 21 0
2/4/16 19 -3 30.16 64% -1 .05" 1.5"
2/3/16 15 -6 30.06 49% 1 Trace Trace
2/2/16 23 8 29.90 67% 8 .15" 1.5"
2/1/16 23 11 30.14 64% 13 Trace Trace
1/31/16 35 11 29.96 61% 11 0
1/30/16 36 27 29.74 79% 27 0
1/29/16 28 7 29.68 55% 28 .3" 3.5"
1/28/16 15 -6 29.90 55% 7 0
1/27/16 25 14 29.84 67% 14 .42" 4.5"
1/26/16 22 14 29.88 76% 16 Trace Trace
1/25/16 30 18 29.80 76% 18 .2" 1.5"
1/24/16 26 20 29.94 87% 26 Trace
1/23/16 21 16 29.96 76% 20 .1" 1"
1/22/16 16 7 30.06 79% 16 0
1/21/16 16 7 30.34 67% 7 Trace Trace
1/20/16 14 -10 30.20 70% 11 Trace Trace
1/19/16 8 -13 30.12 60% -10 0
1/18/16 -3 -17 30.26 62% -11 0
1/17/16 -5 -18 30.10 70% -17 0
1/16/16 -1 -18 30.02 70% -18 0
1/15/16 20 0 29.80 70% 0 Trace Trace
1/14/16 16 -2 29.80 77% 13 .23" 3.5"
1/13/16 -1 -14 29.80 64% -2 Trace Trace
1/12/16 -3 -12 29.88 64% -5 0
1/11/16 0 -13 29.96 64% -13 Trace Trace
1/10/16 0 -15 29.92 64% -12 0
1/9/16 8 -14 30.00 64% -13 Trace Trace
1/8/16 32 8 29.82 84% 8 .05" .5"
1/7/16 31 26 29.92 89% 30 .25" 2.5"
1/6/16 26 23 30.06 86% 26 .14" 1.5"
1/5/16 26 16 30.10 72% 23 0
1/4/16 23 13 29.92 72% 16 0
1/3/16 25 12 30.00 75% 13 Trace Trace
1/2/16 23 17 30.12 88% 18 .02" Trace
1/1/16 19 13 29.88 73% 17 0
12/31/15 17 11 29.92 72% 13 .02" .5"
12/30/15 19 9 30.04 69% 11 0
12/29/15 14 6 30.12 74% 14 Trace Trace
12/28/15 15 6 30.06 74% 6 0
12/27/15 12 2 30.38 69% 7 Trace Trace
12/26/15 21 7 30.32 69% 7 .22" 2"
12/25/15 21 12 30.34 80% 20 Trace Trace
12/24/15 20 6 30.08 68% 12 Trace Trace
12/23/15 33 20 29.68 76% 20 .52" 5"
12/22/15 32 25 29.74 98% 32 Trace
12/21/15 25 17 29.86 93% 25 Trace Trace
12/20/15 27 5 29.98 79% 17 0
12/19/15 23 5 29.92 87% 22 0
12/18/15 10 4 30.02 68% 5 Trace Trace
12/17/15 21 9 29.80 68% 9 .06" 1"
12/16/15 33 16 29.72 70% 16 .35" 5.5"
12/15/15 30 19 29.74 98% 30 .26" 1.5"
12/14/15 26 19 30.00 80% 19 Trace Trace
12/13/15 34 26 29.74 87% 26 Trace Trace
12/12/15 34 30 29.98 98% 33 .15" 1"
12/11/15 30 29 30.02 94% 30 Trace Trace
12/10/15 37 28 29.78 98% 28 .5" 1.25"
12/9/15 37 30 29.72 96% 30 .2"
12/8/15 39 30 29.80 80% 30 0
12/7/15 34 28 29.86 88% 33 0
12/6/15 38 23 30.06 97% 28 0
12/5/15 39 34 30.14 87% 34 0
12/4/15 41 35 30.16 78% 35 0
12/3/15 34 25 30.18 84% 29 0
12/2/15 34 26 30.02 85% 26 0
12/1/15 35 32 29.90 95% 33 .45" 3.5"
11/30/15 33 22 29.90 93% 33 Trace Trace
11/29/15 29 12 30.16 82% 18 0
11/28/15 32 6 30.20 81% 12 0
11/27/15 20 11 30.24 61% 16 0
11/26/15 25 9 30.38 67% 11 Trace Trace
11/25/15 36 25 30.20 76% 25 .1" 1"
11/24/15 33 28 30.00 96% 32
11/23/15 30 27 30.16 88% 28 trace trace
11/22/15 27 13 29.94 91% 27 0.07" 1"
11/21/15 21 6 30.00 71% 11 Trace Trace
11/20/15 23 16 30.10 72% 18 .02" .5"
11/19/15 30 21 29.92 72% 26 .09" 1.8"
11/18/15 52 48 29.56 98% 26 .56"
11/17/15 51 44 29.58 98% 50 .44"
11/16/15 44 41 29.98 98% 44 .26"
11/15/15 46 32 30.04 98% 41 Trace
11/14/15 40 29 30.06 90% 33 0
11/13/15 31 20 30.02 95% 29 Trace Trace
11/12/15 40 29 29.90 90% 29 .43" 3.5"
11/11/15 46 40 29.74 88% 40 .08"
11/10/15 51 35 29.94 80% 40 0
11/9/15 54 33 30.02 87% 35 0
11/8/15 55 28 30.02 86% 34 0
11/7/15 35 27 30.06 88% 28 Trace Trace
11/6/15 39 32 30.04 86% 32 Trace Trace
11/5/15 53 45 29.78 98% 52 .05"
11/4/15 55 34 29.82 89% 36 .07"
11/3/15 54 40 30.00 98% 45 0
11/2/15 51 34 30.08 97% 40 0
11/1/15 47 34 29.90 88% 34 Trace
10/31/15 43 41 29.28 98% 43 .37"
10/30/15 41 33 29.82 98% 41 Trace
10/29/15 39 33 30.00 90% 33 Trace Trace
10/28/15 42 33 29.76 94% 34 .65" Trace
10/27/15 46 40 29.74 91% 42 .28"
10/26/15 47 26 30.24 97% 40 0
10/25/15 45 25 30.10 95% 25 0
10/24/15 48 32 30.18 77% 32 Trace
10/23/15 47 37 29.90 96% 42 .38"
10/22/15 51 37 30.10 90% 38 0
10/21/15 44 36 30.16 88% 37 Trace
10/20/15 46 34 30.00 91% 41 .06"
10/19/15 58 35 30.08 68% 35 0
10/18/15 44 26 29.90 70% 37 0
10/17/15 38 23 30.28 72% 26 0
10/16/15 36 25 30.28 60% 25 0
10/15/15 48 28 30.20 58% 28 .13"
10/14/15 55 37 29.90 74% 37 0
10/13/15 43 35 29.90 87% 37 0
10/12/15 56 39 29.78 87% 39 .2"
10/11/15 80 53 29.54 50% 53 0
10/10/15 62 38 29.74 79% 53 0
10/9/15 50 38 30.00 84% 38 0
10/8/15 49 41 30.12 95% 41 .08"
10/7/15 52 37 29.98 96% 44 .39"
10/6/15 59 34 30.16 79% 38 0
10/5/15 57 45 30.08 85% 47 0
10/4/15 53 38 30.18 85% 46 0
10/3/15 53 36 30.30 81% 43 0
10/2/15 50 36 30.38 82% 34 0
10/1/15 55 32 30.41 86% 34 0
9/30/15 56 35 30.40 81% 37 0
9/29/15 56 33 30.26 78% 33 0
9/28/15 65 36 30.14 63% 37 0
9/27/15 72 55 29.98 86% 56 Trace
9/26/15 67 52 30.20 98% 56 0
9/25/15 59 50 30.24 98% 52 .01"
9/24/15 55 50 30.28 96% 54 .02"
 


Home I Trip Planning I Rentals and Outfitting I Reservations I Campgrounds I Sawbill Store I Sawbill News I Contact

© 1997 - 2016, Sawbill Canoe Outfitters, Inc. I Privacy Policy